Norfolk, VA

5:05 PM EDT on April 25, 2018 (GMT -0400)
Norfolk International

Weather History for KORF - May, 2013

Change the Weather History Date:

Monday, May 6, 2013

  Actual Average Record
Temperature  
Mean Temperature 64 °F 64 °F  
Max Temperature 73 °F 73 °F 93 °F (1950)
Min Temperature 54 °F 55 °F 43 °F (1964)
Degree Days  
Heating Degree Days 1 4  
Month to date heating degree days 43 24  
Since 1 July heating degree days 3242 3324  
Cooling Degree Days 0 2  
Month to date cooling degree days 0 12  
Year to date cooling degree days 66 56  
Growing Degree Days 13 (Base 50)    
Moisture  
Dew Point 56 °F    
Average Humidity 79    
Maximum Humidity 100    
Minimum Humidity 57    
Precipitation  
Precipitation 0.03 in 0.10 in 1.66 in (1958)
Month to date precipitation 0.14 0.62  
Year to date precipitation 13.41 14.23  
Snow  
Snow 0.00 in 0.00 in 0.00 in (2002)
Month to date snowfall 0.0 0.0  
Since 1 July snowfall 1.8 5.8  
Snow Depth 0.00 in    
Sea Level Pressure  
Sea Level Pressure 30.03 in    
Wind  
Wind Speed 11 mph (East)    
Max Wind Speed 21 mph    
Max Gust Speed 28 mph    
Visibility 7 miles    
Events Fog    
T = Trace of Precipitation, MM = Missing Value Source: NWS Daily Summary

Daily Weather History Graph

Daily Weather History Graph

Search for Another Location

Airport or City:

Astronomy

May. 06, 2013 Rise Set
Actual Time 6:05 AM EDT 7:58 PM EDT
Civil Twilight 5:36 AM EDT 8:26 PM EDT
Nautical Twilight 5:02 AM EDT 9:00 PM EDT
Astronomical Twilight 4:26 AM EDT 9:37 PM EDT
Moon 4:01 AM EDT (5/6) 5:00 PM EDT (5/6)
Length of Visible Light 14h 49m
Length of Day
13h 53m
Waning Crescent, 11% of the Moon is Illuminated
May 6
Waning Crescent
May 9
New
May 18
First Quarter
May 25
Full
May 31
Last Quarter

Hourly Weather History & Observations

Time (EDT) Temp. Dew Point Humidity Pressure Visibility Wind Dir Wind Speed Gust Speed Precip Events Conditions
12:51 AM 54.0 °F 52.0 °F 93% 30.09 in 8.0 mi ENE 11.5 mph 24.2 mph 0.00 in   Overcast
1:51 AM 55.0 °F 52.0 °F 89% 30.08 in 8.0 mi ENE 11.5 mph 20.7 mph 0.00 in   Overcast
2:51 AM 55.0 °F 53.1 °F 93% 30.06 in 8.0 mi ENE 15.0 mph 21.9 mph N/A   Overcast
3:51 AM 55.9 °F 53.1 °F 90% 30.05 in 9.0 mi ENE 12.7 mph - N/A   Overcast
4:51 AM 55.9 °F 54.0 °F 93% 30.05 in 6.0 mi ENE 9.2 mph - N/A   Overcast
5:51 AM 55.9 °F 55.0 °F 97% 30.04 in 5.0 mi ENE 12.7 mph - N/A   Overcast
6:20 AM 57.2 °F 55.4 °F 94% 30.06 in 1.8 mi ENE 9.2 mph 20.7 mph N/A   Overcast
6:51 AM 57.0 °F 55.0 °F 93% 30.06 in 0.8 mi ENE 12.7 mph 18.4 mph N/A   Overcast
7:04 AM 57.2 °F 55.4 °F 94% 30.06 in 1.2 mi ENE 10.4 mph - N/A   Overcast
7:20 AM 55.4 °F 55.4 °F 100% 30.06 in 0.5 mi ENE 12.7 mph - N/A Fog Fog
7:40 AM 57.2 °F 55.4 °F 94% 30.06 in 1.0 mi ENE 9.2 mph - N/A   Overcast
7:47 AM 57.2 °F 55.4 °F 94% 30.06 in 0.5 mi ENE 10.4 mph - N/A Fog Fog
7:51 AM 57.0 °F 55.9 °F 96% 30.06 in 0.5 mi ENE 10.4 mph - N/A Fog Fog
8:19 AM 57.2 °F 57.2 °F 100% 30.06 in 0.2 mi ENE 10.4 mph - N/A Fog Fog
8:51 AM 59.0 °F 57.9 °F 96% 30.06 in 1.8 mi East 5.8 mph - N/A   Overcast
8:54 AM 59.0 °F 57.2 °F 94% 30.07 in 3.0 mi East 6.9 mph - N/A   Overcast
9:13 AM 60.8 °F 59.0 °F 94% 30.07 in 10.0 mi East 8.1 mph - N/A   Overcast
9:51 AM 62.1 °F 59.0 °F 90% 30.06 in 10.0 mi East 8.1 mph 17.3 mph N/A   Overcast
9:58 AM 62.6 °F 59.0 °F 88% 30.05 in 10.0 mi ENE 9.2 mph - N/A   Mostly Cloudy
10:00 AM 62.6 °F 59.0 °F 88% 30.05 in 10.0 mi ENE 8.1 mph - N/A   Scattered Clouds
10:51 AM 68.0 °F 59.0 °F 73% 30.05 in 10.0 mi East 12.7 mph - N/A   Partly Cloudy
11:51 AM 71.1 °F 57.9 °F 63% 30.05 in 10.0 mi East 12.7 mph 20.7 mph N/A   Mostly Cloudy
12:51 PM 70.0 °F 60.1 °F 71% 30.03 in 10.0 mi ENE 11.5 mph - N/A   Scattered Clouds
1:51 PM 71.1 °F 57.9 °F 63% 30.02 in 10.0 mi ESE 12.7 mph 20.7 mph N/A   Partly Cloudy
2:51 PM 72.0 °F 55.9 °F 57% 30.00 in 10.0 mi ESE 15.0 mph 24.2 mph N/A   Scattered Clouds
3:51 PM 70.0 °F 55.9 °F 61% 29.99 in 10.0 mi ESE 15.0 mph 24.2 mph N/A   Partly Cloudy
4:51 PM 69.1 °F 57.0 °F 65% 29.99 in 10.0 mi ESE 9.2 mph 18.4 mph N/A   Mostly Cloudy
5:51 PM 66.9 °F 57.0 °F 70% 29.98 in 10.0 mi ESE 10.4 mph - N/A   Overcast
6:51 PM 66.0 °F 55.9 °F 70% 29.98 in 10.0 mi SE 9.2 mph - N/A   Overcast
7:51 PM 64.0 °F 55.9 °F 75% 29.97 in 10.0 mi ESE 12.7 mph 17.3 mph N/A   Mostly Cloudy
8:51 PM 64.0 °F 57.0 °F 78% 29.98 in 10.0 mi SE 6.9 mph - N/A   Overcast
9:51 PM 64.0 °F 57.0 °F 78% 29.99 in 10.0 mi East 10.4 mph - N/A   Overcast
10:51 PM 62.1 °F 57.9 °F 86% 29.99 in 10.0 mi East 6.9 mph - 0.01 in   Mostly Cloudy
11:51 PM 62.1 °F 57.9 °F 86% 29.97 in 9.0 mi ESE 10.4 mph - 0.01 in   Overcast